| time (UTC) | temp F | wind direction | speed knots | gust knots | rain 1hr in | rain 24hr in | rain mn in | humidity % | barometer mb |
| 20260508111532 | 35 | 116 | 0.0 | 0.0 | 0.00 | 0.00 | 0.00 | 97 | 1011.0 |
| 20260508110032 | 35 | 116 | 0.0 | 0.0 | 0.00 | 0.00 | 0.00 | 97 | 1010.9 |
| 20260508104550 | 35 | 116 | 0.0 | 0.0 | 0.00 | 0.00 | 0.00 | 97 | 1010.8 |
| 20260508103036 | 34 | 116 | 0.0 | 0.0 | 0.00 | 0.00 | 0.00 | 97 | 1010.7 |
| 20260508101529 | 35 | 116 | 0.0 | 0.0 | 0.00 | 0.00 | 0.00 | 96 | 1010.6 |
| 20260508100027 | 35 | 116 | 0.0 | 0.0 | 0.00 | 0.00 | 0.00 | 96 | 1010.4 |
| 20260508094526 | 35 | 116 | 0.0 | 0.0 | 0.00 | 0.00 | 0.00 | 96 | 1010.3 |
| 20260508093025 | 35 | 116 | 0.0 | 0.0 | 0.00 | 0.00 | 0.00 | 96 | 1010.3 |
| 20260508091524 | 36 | 116 | 0.0 | 0.0 | 0.00 | 0.00 | 0.00 | 96 | 1010.4 |
| 20260508090023 | 36 | 116 | 0.0 | 0.0 | 0.00 | 0.00 | 0.00 | 96 | 1010.2 |
| 20260508084522 | 36 | 116 | 0.0 | 0.0 | 0.00 | 0.00 | 0.00 | 96 | 1010.2 |
| 20260508083020 | 36 | 116 | 0.0 | 0.0 | 0.00 | 0.00 | 0.00 | 96 | 1010.2 |
| 20260508081520 | 36 | 116 | 0.0 | 0.0 | 0.00 | 0.00 | 0.00 | 96 | 1010.1 |
| 20260508080018 | 36 | 116 | 0.0 | 0.0 | 0.00 | 0.00 | 0.00 | 95 | 1010.1 |
| 20260508074515 | 37 | 116 | 0.0 | 0.0 | 0.00 | 0.00 | 0.00 | 95 | 1010.1 |
| 20260508073013 | 37 | 116 | 0.0 | 0.0 | 0.00 | 0.00 | 0.00 | 95 | 1010.1 |
| 20260508071513 | 38 | 103 | 1.7 | 5.2 | 0.00 | 0.00 | 0.00 | 96 | 1010.0 |
| 20260508070019 | 37 | 119 | 0.0 | 2.6 | 0.00 | 0.00 | 0.00 | 96 | 1010.1 |
| 20260508064508 | 37 | 111 | 0.0 | 0.0 | 0.00 | 0.00 | 0.00 | 95 | 1010.2 |
| 20260508063007 | 37 | 111 | 0.0 | 0.0 | 0.00 | 0.00 | 0.00 | 95 | 1010.3 |
| 20260508061508 | 38 | 111 | 0.0 | 2.6 | 0.00 | 0.00 | 0.00 | 95 | 1010.2 |
| 20260508060005 | 38 | 248 | 0.0 | 0.0 | 0.00 | 0.00 | 0.00 | 95 | 1010.1 |
| 20260508054505 | 38 | 248 | 0.0 | 0.0 | 0.00 | 0.00 | 0.00 | 94 | 1010.1 |
| 20260508053002 | 38 | 248 | 0.0 | 0.0 | 0.00 | 0.00 | 0.00 | 94 | 1010.4 |
| 20260508051600 | 39 | 248 | 0.0 | 0.0 | 0.00 | 0.00 | 0.00 | 94 | 1010.5 |
| 20260508050103 | 39 | 248 | 0.0 | 0.0 | 0.00 | 0.00 | 0.00 | 94 | 1010.5 |
| 20260508044557 | 39 | 248 | 0.0 | 0.0 | 0.00 | 0.00 | 0.00 | 93 | 1010.4 |
| 20260508043103 | 40 | 248 | 0.0 | 0.0 | 0.00 | 0.00 | 0.00 | 92 | 1010.4 |
| 20260508041553 | 40 | 248 | 0.0 | 0.0 | 0.00 | 0.00 | 0.00 | 91 | 1010.3 |
| 20260508040050 | 41 | 248 | 0.0 | 0.0 | 0.00 | 0.00 | 0.00 | 90 | 1010.2 |
| 20260508034549 | 41 | 248 | 0.0 | 0.0 | 0.00 | 0.00 | 0.00 | 89 | 1010.3 |
| 20260508033049 | 42 | 248 | 0.0 | 0.0 | 0.00 | 0.00 | 0.00 | 88 | 1010.1 |
| 20260508031551 | 43 | 248 | 0.0 | 0.0 | 0.00 | 0.00 | 0.00 | 86 | 1010.2 |
| 20260508030051 | 43 | 248 | 0.0 | 0.0 | 0.00 | 0.00 | 0.00 | 85 | 1010.1 |
| 20260508024540 | 44 | 248 | 0.0 | 0.0 | 0.00 | 0.00 | 0.00 | 83 | 1010.0 |
| 20260508023044 | 45 | 248 | 0.0 | 0.0 | 0.00 | 0.00 | 0.00 | 79 | 1010.0 |
| 20260508021539 | 46 | 248 | 0.0 | 0.0 | 0.00 | 0.00 | 0.00 | 79 | 1009.6 |
| 20260508020039 | 47 | 248 | 0.0 | 0.0 | 0.00 | 0.00 | 0.00 | 76 | 1009.4 |
| 20260508014538 | 48 | 248 | 0.0 | 0.0 | 0.00 | 0.00 | 0.00 | 72 | 1009.4 |
| 20260508013038 | 49 | 248 | 0.0 | 0.0 | 0.00 | 0.00 | 0.00 | 69 | 1009.1 |
| 20260508011539 | 50 | 248 | 0.0 | 0.0 | 0.00 | 0.00 | 0.00 | 68 | 1008.9 |
| 20260508010036 | 52 | 248 | 0.0 | 0.0 | 0.00 | 0.00 | 0.00 | 64 | 1008.7 |
| 20260508004535 | 53 | 248 | 0.0 | 0.0 | 0.00 | 0.00 | 0.00 | 57 | 1008.5 |
| 20260508003036 | 56 | 248 | 0.0 | 0.0 | 0.00 | 0.00 | 0.00 | 56 | 1008.4 |
| 20260508001535 | 57 | 248 | 0.9 | 4.3 | 0.00 | 0.00 | 0.00 | 46 | 1008.3 |
| 20260508000035 | 58 | 247 | 2.6 | 8.7 | 0.00 | 0.00 | 0.00 | 41 | 1008.1 |
| 20260507234540 | 59 | 199 | 5.2 | 9.6 | 0.00 | 0.00 | 0.00 | 41 | 1007.9 |
| 20260507233034 | 60 | 236 | 2.6 | 7.8 | 0.00 | 0.00 | 0.00 | 40 | 1007.8 |
| 20260507231533 | 61 | 245 | 5.2 | 9.6 | 0.00 | 0.00 | 0.00 | 39 | 1007.7 |
| 20260507230032 | 61 | 178 | 3.5 | 10.4 | 0.00 | 0.00 | 0.00 | 40 | 1007.4 |
| 20260507224532 | 62 | 246 | 4.3 | 10.4 | 0.00 | 0.00 | 0.00 | 39 | 1007.3 |
| 20260507223031 | 62 | 249 | 5.2 | 10.4 | 0.00 | 0.00 | 0.00 | 40 | 1007.3 |
| 20260507221530 | 63 | 142 | 1.7 | 10.4 | 0.00 | 0.00 | 0.00 | 42 | 1007.2 |
| 20260507220030 | 62 | 271 | 4.3 | 7.8 | 0.00 | 0.00 | 0.00 | 44 | 1007.1 |
| 20260507214530 | 61 | 220 | 6.1 | 14.8 | 0.00 | 0.00 | 0.00 | 43 | 1006.9 |
| 20260507213030 | 63 | 232 | 4.3 | 11.3 | 0.00 | 0.00 | 0.00 | 44 | 1006.8 |
| 20260507211528 | 62 | 222 | 3.5 | 7.8 | 0.00 | 0.00 | 0.00 | 44 | 1006.7 |
| 20260507210027 | 62 | 269 | 2.6 | 12.2 | 0.00 | 0.00 | 0.00 | 47 | 1006.6 |
| 20260507204526 | 62 | 246 | 5.2 | 11.3 | 0.00 | 0.00 | 0.00 | 45 | 1006.6 |
| 20260507203026 | 62 | 231 | 4.3 | 16.5 | 0.00 | 0.00 | 0.00 | 43 | 1006.5 |
| 20260507201531 | 62 | 250 | 1.7 | 9.6 | 0.00 | 0.00 | 0.00 | 48 | 1006.6 |
| 20260507200024 | 63 | 244 | 3.5 | 11.3 | 0.00 | 0.00 | 0.00 | 46 | 1006.7 |
| 20260507194523 | 63 | 236 | 7.0 | 13.9 | 0.00 | 0.00 | 0.00 | 45 | 1006.8 |
| 20260507193028 | 63 | 130 | 2.6 | 7.0 | 0.00 | 0.00 | 0.00 | 44 | 1006.8 |
| 20260507191521 | 62 | 147 | 1.7 | 8.7 | 0.00 | 0.00 | 0.00 | 46 | 1007.3 |
| 20260507190019 | 63 | 252 | 2.6 | 7.8 | 0.00 | 0.00 | 0.00 | 46 | 1007.5 |
| 20260507184516 | 61 | 257 | 4.3 | 13.0 | 0.00 | 0.00 | 0.00 | 50 | 1007.5 |
| 20260507183023 | 62 | 260 | 6.1 | 10.4 | 0.00 | 0.00 | 0.00 | 47 | 1007.7 |
| 20260507181512 | 61 | 207 | 2.6 | 12.2 | 0.00 | 0.00 | 0.00 | 55 | 1007.5 |
| 20260507180015 | 60 | 296 | 2.6 | 11.3 | 0.00 | 0.00 | 0.00 | 52 | 1007.8 |
| 20260507174509 | 60 | 242 | 3.5 | 8.7 | 0.00 | 0.00 | 0.00 | 54 | 1007.9 |
| 20260507173007 | 59 | 128 | 0.9 | 9.6 | 0.00 | 0.00 | 0.00 | 54 | 1007.9 |
| 20260507171504 | 58 | 246 | 2.6 | 9.6 | 0.00 | 0.00 | 0.00 | 57 | 1008.0 |
| 20260507170003 | 59 | 267 | 3.5 | 8.7 | 0.00 | 0.00 | 0.00 | 56 | 1008.1 |
| 20260507164636 | 58 | 304 | 2.6 | 7.8 | 0.00 | 0.00 | 0.00 | 56 | 1008.4 |
| 20260507163101 | 58 | 233 | 4.3 | 9.6 | 0.00 | 0.00 | 0.00 | 55 | 1008.5 |
| 20260507161607 | 58 | 273 | 3.5 | 7.8 | 0.00 | 0.00 | 0.00 | 59 | 1008.4 |
| 20260507160058 | 58 | 196 | 2.6 | 7.8 | 0.00 | 0.00 | 0.00 | 58 | 1008.6 |
| 20260507154557 | 58 | 214 | 4.3 | 9.6 | 0.00 | 0.00 | 0.00 | 56 | 1008.6 |
| 20260507153055 | 57 | 265 | 6.1 | 10.4 | 0.00 | 0.00 | 0.00 | 55 | 1008.7 |
| 20260507151553 | 56 | 273 | 4.3 | 8.7 | 0.00 | 0.00 | 0.00 | 61 | 1008.6 |
| 20260507150052 | 56 | 271 | 0.9 | 7.0 | 0.00 | 0.00 | 0.00 | 60 | 1008.9 |
| 20260507144550 | 56 | 292 | 5.2 | 8.7 | 0.00 | 0.02 | 0.00 | 62 | 1008.9 |
| 20260507143105 | 56 | 250 | 3.5 | 7.8 | 0.00 | 0.02 | 0.00 | 64 | 1008.9 |
| 20260507141605 | 55 | 217 | 0.9 | 6.1 | 0.00 | 0.02 | 0.00 | 66 | 1008.9 |
| 20260507140046 | 55 | 177 | 0.9 | 7.0 | 0.00 | 0.02 | 0.00 | 65 | 1009.2 |
| 20260507134543 | 54 | 259 | 3.5 | 8.7 | 0.00 | 0.02 | 0.00 | 65 | 1009.3 |
| 20260507133042 | 53 | 244 | 1.7 | 4.3 | 0.00 | 0.02 | 0.00 | 65 | 1009.5 |
| 20260507131549 | 51 | 279 | 0.0 | 2.6 | 0.00 | 0.02 | 0.00 | 78 | 1009.5 |
| 20260507130043 | 50 | 279 | 0.0 | 1.7 | 0.00 | 0.02 | 0.00 | 91 | 1009.5 |
| 20260507124538 | 48 | 243 | 0.0 | 0.0 | 0.00 | 0.03 | 0.00 | 96 | 1009.5 |
| 20260507123040 | 47 | 243 | 0.0 | 0.0 | 0.00 | 0.03 | 0.00 | 97 | 1009.5 |
| 20260507121542 | 46 | 243 | 0.0 | 0.0 | 0.00 | 0.03 | 0.00 | 97 | 1009.5 |
| 20260507120036 | 46 | 243 | 0.0 | 0.0 | 0.00 | 0.11 | 0.00 | 97 | 1009.6 |
| 20260507114535 | 45 | 243 | 0.0 | 0.0 | 0.00 | 0.11 | 0.00 | 98 | 1009.6 |
| 20260507113035 | 45 | 243 | 0.0 | 0.0 | 0.00 | 0.11 | 0.00 | 97 | 1009.4 |